^^
Datos históricos de la estación: Murcia-Puente Tocinos
Diario Informe para Agosto 4, 2019 Unidades:  Métrico    Inglés   Ambas
Diario Semanal Mensual Anual Configurable
  Máximo: Mínimo: Media:
Temperatura: 34.4 °C 23.5 °C 28.3 °C
Punto de rocio: 22.1 °C 19.4 °C 20.8 °C
Humedad: 85% 42% 66%
Velocidad viento: 17.2km/h 0.0km/h 8.4km/h
Racha viento: 33.3km/h - -
Viento- - ESE
Presión: 1012.9 hPa 1009.3 hPa -
Precipitación: 0.0 mm    
Historical Graphs
 
 
Tabla de datos para Agosto 4, 2019
Hora Temperatura Punto de rocio Presión Viento Velocidad viento Racha viento Humedad Intensidad lluvia(por hora) Nubes
00:04 25.4 °C 20.2 °C 1012.8 hPa ENE 5.8 km/h 7.4 km/h 73% 0.0 mm CLR
00:09 25.4 °C 20.0 °C 1012.8 hPa ENE 5.0 km/h 11.1 km/h 72% 0.0 mm CLR
00:14 25.4 °C 20.0 °C 1012.8 hPa East 5.0 km/h 9.3 km/h 72% 0.0 mm CLR
00:19 25.4 °C 20.0 °C 1012.8 hPa ENE 5.0 km/h 7.4 km/h 72% 0.0 mm CLR
00:24 25.4 °C 20.2 °C 1012.8 hPa ENE 5.0 km/h 11.1 km/h 73% 0.0 mm CLR
00:29 25.3 °C 20.3 °C 1012.8 hPa NE 7.6 km/h 11.1 km/h 74% 0.0 mm CLR
00:34 25.2 °C 20.2 °C 1012.9 hPa NE 7.6 km/h 13.0 km/h 74% 0.0 mm CLR
00:39 25.2 °C 20.4 °C 1012.9 hPa ENE 7.6 km/h 14.8 km/h 75% 0.0 mm CLR
00:44 25.2 °C 20.4 °C 1012.9 hPa NE 7.6 km/h 11.1 km/h 75% 0.0 mm CLR
00:49 25.2 °C 20.7 °C 1012.7 hPa East 7.6 km/h 9.3 km/h 76% 0.0 mm CLR
00:54 25.1 °C 20.6 °C 1012.7 hPa ENE 7.6 km/h 7.4 km/h 76% 0.0 mm CLR
00:59 25.1 °C 20.6 °C 1012.7 hPa East 6.4 km/h 7.4 km/h 76% 0.0 mm CLR
01:04 25.1 °C 20.8 °C 1012.7 hPa NNE 6.4 km/h 9.5 km/h 77% 0.0 mm CLR
01:09 24.9 °C 20.6 °C 1012.7 hPa NE 6.4 km/h 7.4 km/h 77% 0.0 mm CLR
01:14 24.8 °C 20.5 °C 1012.7 hPa NE 6.4 km/h 9.3 km/h 77% 0.0 mm CLR
01:19 24.7 °C 20.6 °C 1012.8 hPa NE 6.4 km/h 11.1 km/h 78% 0.0 mm CLR
01:24 24.7 °C 20.8 °C 1012.8 hPa NNE 6.4 km/h 11.1 km/h 79% 0.0 mm CLR
01:29 24.6 °C 20.7 °C 1012.8 hPa NE 7.6 km/h 9.5 km/h 79% 0.0 mm CLR
01:34 24.5 °C 20.8 °C 1012.8 hPa NE 7.6 km/h 7.6 km/h 80% 0.0 mm CLR
01:39 24.4 °C 20.7 °C 1012.8 hPa NE 5.8 km/h 7.6 km/h 80% 0.0 mm CLR
01:44 24.4 °C 20.7 °C 1012.8 hPa NE 5.8 km/h 9.5 km/h 80% 0.0 mm CLR
01:49 24.4 °C 20.9 °C 1012.7 hPa NE 6.9 km/h 11.1 km/h 81% 0.0 mm CLR
01:54 24.3 °C 20.8 °C 1012.7 hPa ENE 6.9 km/h 8.4 km/h 81% 0.0 mm CLR
01:59 24.3 °C 20.8 °C 1012.7 hPa NE 6.9 km/h 7.4 km/h 81% 0.0 mm CLR
02:04 24.3 °C 21.1 °C 1012.5 hPa NNE 6.9 km/h 5.6 km/h 82% 0.0 mm CLR
02:09 24.2 °C 20.9 °C 1012.5 hPa NNE 5.0 km/h 7.4 km/h 82% 0.0 mm CLR
02:14 24.2 °C 20.9 °C 1012.5 hPa ENE 5.0 km/h 3.7 km/h 82% 0.0 mm CLR
02:19 24.2 °C 20.9 °C 1012.4 hPa NNE 3.2 km/h 7.4 km/h 82% 0.0 mm CLR
02:24 24.2 °C 21.1 °C 1012.4 hPa ENE 3.2 km/h 7.6 km/h 83% 0.0 mm CLR
02:29 24.2 °C 21.1 °C 1012.4 hPa NE 5.0 km/h 7.4 km/h 83% 0.0 mm CLR
02:34 24.2 °C 21.1 °C 1012.3 hPa ENE 5.0 km/h 6.4 km/h 83% 0.0 mm CLR
02:39 24.2 °C 21.1 °C 1012.3 hPa ENE 3.9 km/h 8.4 km/h 83% 0.0 mm CLR
02:44 24.2 °C 21.1 °C 1012.3 hPa NE 3.9 km/h 9.3 km/h 83% 0.0 mm CLR
02:49 24.1 °C 21.1 °C 1012.1 hPa NE 5.8 km/h 6.4 km/h 83% 0.0 mm CLR
02:54 24.1 °C 21.1 °C 1012.1 hPa NNE 5.8 km/h 5.6 km/h 83% 0.0 mm CLR
02:59 24.1 °C 21.1 °C 1012.1 hPa NE 3.9 km/h 5.0 km/h 83% 0.0 mm CLR
03:04 24.1 °C 21.1 °C 1011.9 hPa NNE 3.9 km/h 6.4 km/h 83% 0.0 mm CLR
03:09 24.1 °C 21.1 °C 1011.9 hPa NNE 2.9 km/h 3.7 km/h 83% 0.0 mm CLR
03:14 24.1 °C 21.1 °C 1011.9 hPa North 2.9 km/h   83% 0.0 mm CLR
03:19 24.1 °C 21.1 °C 1012.1 hPa Calm     83% 0.0 mm CLR
03:24 24.1 °C 21.1 °C 1012.1 hPa Calm   3.2 km/h 83% 0.0 mm CLR
03:29 24.1 °C 21.2 °C 1012.1 hPa NW 2.3 km/h 3.7 km/h 84% 0.0 mm CLR
03:34 24.1 °C 21.2 °C 1012.0 hPa NW 2.3 km/h   84% 0.0 mm CLR
03:39 24.1 °C 21.2 °C 1012.0 hPa WNW 2.3 km/h 3.7 km/h 84% 0.0 mm CLR
03:44 24.1 °C 21.1 °C 1012.0 hPa WNW 2.3 km/h 3.7 km/h 83% 0.0 mm CLR
03:49 24.1 °C 21.2 °C 1011.8 hPa WNW 2.9 km/h 3.7 km/h 84% 0.0 mm CLR
03:54 24.0 °C 20.9 °C 1011.8 hPa WNW 2.9 km/h   83% 0.0 mm CLR
03:59 23.9 °C 21.1 °C 1011.8 hPa WNW 2.3 km/h   84% 0.0 mm CLR
04:04 23.9 °C 21.1 °C 1011.8 hPa WNW 2.3 km/h   84% 0.0 mm CLR
04:09 23.9 °C 21.1 °C 1011.8 hPa Calm     84% 0.0 mm CLR
04:14 23.9 °C 21.1 °C 1011.8 hPa Calm   6.9 km/h 84% 0.0 mm CLR
04:19 23.9 °C 21.1 °C 1011.7 hPa WNW 3.2 km/h 5.6 km/h 84% 0.0 mm CLR
04:24 23.8 °C 20.9 °C 1011.7 hPa WNW 3.2 km/h 7.4 km/h 84% 0.0 mm CLR
04:29 23.8 °C 20.9 °C 1011.7 hPa WNW 2.9 km/h 5.6 km/h 84% 0.0 mm CLR
04:34 23.8 °C 21.1 °C 1011.7 hPa WNW 2.9 km/h 3.7 km/h 85% 0.0 mm CLR
04:39 23.8 °C 21.1 °C 1011.7 hPa West 2.9 km/h 3.7 km/h 85% 0.0 mm CLR
04:44 23.8 °C 21.1 °C 1011.7 hPa West 2.9 km/h   85% 0.0 mm CLR
04:49 23.8 °C 21.1 °C 1011.5 hPa West 2.3 km/h 7.4 km/h 85% 0.0 mm CLR
04:54 23.8 °C 21.1 °C 1011.5 hPa WSW 2.3 km/h 7.4 km/h 85% 0.0 mm CLR
04:59 23.8 °C 21.1 °C 1011.5 hPa West 3.9 km/h 7.4 km/h 85% 0.0 mm CLR
05:04 23.9 °C 21.2 °C 1011.3 hPa West 3.9 km/h 5.0 km/h 85% 0.0 mm CLR
05:09 23.9 °C 21.2 °C 1011.3 hPa WNW 3.2 km/h 5.6 km/h 85% 0.0 mm CLR
05:14 23.9 °C 21.2 °C 1011.3 hPa WNW 3.2 km/h   85% 0.0 mm CLR
05:19 23.9 °C 21.2 °C 1011.2 hPa WSW 2.3 km/h 7.4 km/h 85% 0.0 mm CLR
05:24 23.9 °C 21.2 °C 1011.2 hPa West 2.3 km/h 6.9 km/h 85% 0.0 mm CLR
05:29 23.9 °C 21.1 °C 1011.2 hPa SE 5.0 km/h 7.4 km/h 84% 0.0 mm CLR
05:34 23.9 °C 20.8 °C 1011.1 hPa South 5.0 km/h 11.1 km/h 83% 0.0 mm CLR
05:39 23.9 °C 20.6 °C 1011.1 hPa South 7.6 km/h 11.1 km/h 82% 0.0 mm CLR
05:44 23.9 °C 20.6 °C 1011.1 hPa SSW 7.6 km/h 9.3 km/h 82% 0.0 mm CLR
05:49 23.9 °C 20.6 °C 1011.2 hPa SSW 7.6 km/h 11.1 km/h 82% 0.0 mm CLR
05:54 23.9 °C 20.6 °C 1011.2 hPa SW 7.6 km/h 9.3 km/h 82% 0.0 mm CLR
05:59 23.8 °C 20.6 °C 1011.2 hPa SW 6.4 km/h 9.3 km/h 82% 0.0 mm CLR
06:04 23.8 °C 20.6 °C 1011.1 hPa WSW 6.4 km/h 11.1 km/h 82% 0.0 mm CLR
06:09 23.8 °C 20.6 °C 1011.1 hPa SW 6.4 km/h 7.4 km/h 82% 0.0 mm CLR
06:14 23.8 °C 20.6 °C 1011.1 hPa SSW 6.4 km/h 11.1 km/h 82% 0.0 mm CLR
06:19 23.8 °C 20.6 °C 1011.2 hPa SSW 6.9 km/h 6.4 km/h 82% 0.0 mm CLR
06:24 23.7 °C 20.4 °C 1011.2 hPa SSE 6.9 km/h 13.0 km/h 82% 0.0 mm CLR
06:29 23.7 °C 20.4 °C 1011.2 hPa South 8.4 km/h 11.9 km/h 82% 0.0 mm CLR
06:34 23.7 °C 20.4 °C 1011.4 hPa SSW 8.4 km/h 11.1 km/h 82% 0.0 mm CLR
06:39 23.7 °C 20.4 °C 1011.4 hPa SSW 8.4 km/h 11.1 km/h 82% 0.0 mm CLR
06:44 23.7 °C 20.4 °C 1011.4 hPa SSW 8.4 km/h 9.3 km/h 82% 0.0 mm CLR
06:49 23.7 °C 20.4 °C 1011.2 hPa WSW 6.9 km/h 7.6 km/h 82% 0.0 mm CLR
06:54 23.7 °C 20.4 °C 1011.2 hPa West 6.9 km/h 3.7 km/h 82% 0.0 mm CLR
06:59 23.7 °C 20.4 °C 1011.2 hPa SSE 4.7 km/h 7.6 km/h 82% 0.0 mm CLR
07:04 23.7 °C 20.4 °C 1011.2 hPa South 4.7 km/h 5.6 km/h 82% 0.0 mm CLR
07:09 23.7 °C 20.4 °C 1011.2 hPa West 3.9 km/h 3.9 km/h 82% 0.0 mm CLR
07:14 23.8 °C 20.6 °C 1011.2 hPa SSE 3.9 km/h 5.6 km/h 82% 0.0 mm CLR
07:19 23.8 °C 20.6 °C 1011.2 hPa WNW 3.9 km/h 5.6 km/h 82% 0.0 mm CLR
07:24 23.8 °C 20.6 °C 1011.2 hPa WNW 3.9 km/h   82% 0.0 mm CLR
07:29 23.8 °C 20.3 °C 1011.2 hPa NW 2.3 km/h 7.4 km/h 81% 0.0 mm CLR
07:34 23.7 °C 20.4 °C 1011.3 hPa NW 2.3 km/h 3.7 km/h 82% 0.0 mm CLR
07:39 23.6 °C 20.3 °C 1011.3 hPa NW 2.3 km/h   82% 0.0 mm CLR
07:44 23.6 °C 20.3 °C 1011.3 hPa South 2.3 km/h 6.9 km/h 82% 0.0 mm CLR
07:49 23.6 °C 20.3 °C 1011.6 hPa SE 3.2 km/h 8.4 km/h 82% 0.0 mm CLR
07:54 23.5 °C 20.2 °C 1011.6 hPa ESE 3.2 km/h 11.1 km/h 82% 0.0 mm CLR
07:59 23.5 °C 20.2 °C 1011.6 hPa SE 6.4 km/h 7.4 km/h 82% 0.0 mm CLR
08:04 23.6 °C 20.3 °C 1011.7 hPa SSE 6.4 km/h 4.7 km/h 82% 0.0 mm CLR
08:09 23.7 °C 20.4 °C 1011.7 hPa SSE 3.2 km/h   82% 0.0 mm CLR
08:14 23.8 °C 20.6 °C 1011.7 hPa SSE 3.2 km/h 5.6 km/h 82% 0.0 mm CLR
08:19 23.9 °C 20.4 °C 1011.9 hPa SSW 3.2 km/h 5.6 km/h 81% 0.0 mm CLR
08:24 24.1 °C 20.6 °C 1011.9 hPa SSE 3.2 km/h 11.1 km/h 81% 0.0 mm CLR
08:29 24.2 °C 20.6 °C 1011.9 hPa SSE 5.8 km/h 9.3 km/h 80% 0.0 mm CLR
08:34 24.3 °C 20.8 °C 1012.1 hPa SE 5.8 km/h 9.3 km/h 81% 0.0 mm CLR
08:39 24.5 °C 20.8 °C 1012.1 hPa SSE 6.4 km/h 13.7 km/h 80% 0.0 mm CLR
08:44 24.6 °C 20.7 °C 1012.1 hPa SSE 6.4 km/h 13.0 km/h 79% 0.0 mm CLR
08:49 24.7 °C 20.8 °C 1012.2 hPa SSE 10.0 km/h 11.1 km/h 79% 0.0 mm CLR
08:54 24.9 °C 20.4 °C 1012.2 hPa SSE 10.0 km/h 13.0 km/h 76% 0.0 mm CLR
08:59 25.2 °C 20.7 °C 1012.2 hPa SE 7.6 km/h 9.3 km/h 76% 0.0 mm CLR
09:04 25.3 °C 20.6 °C 1012.5 hPa ESE 7.6 km/h 7.4 km/h 75% 0.0 mm CLR
09:09 25.6 °C 20.4 °C 1012.5 hPa SSE 5.8 km/h 7.4 km/h 73% 0.0 mm CLR
09:14 25.8 °C 19.9 °C 1012.5 hPa SSE 5.8 km/h 2.9 km/h 70% 0.0 mm CLR
09:19 26.1 °C 19.9 °C 1012.6 hPa SW 2.9 km/h 7.4 km/h 69% 0.0 mm CLR
09:24 26.4 °C 20.0 °C 1012.6 hPa West 2.9 km/h 7.4 km/h 68% 0.0 mm CLR
09:29 26.6 °C 19.9 °C 1012.6 hPa NW 3.2 km/h 3.7 km/h 67% 0.0 mm CLR
09:34 26.9 °C 20.0 °C 1012.5 hPa NNW 3.2 km/h   66% 0.0 mm CLR
09:39 27.3 °C 20.2 °C 1012.5 hPa Calm   7.6 km/h 65% 0.0 mm CLR
09:44 27.3 °C 19.9 °C 1012.5 hPa Calm   7.4 km/h 64% 0.0 mm CLR
09:49 27.2 °C 20.1 °C 1012.7 hPa SSW 5.0 km/h 3.7 km/h 65% 0.0 mm CLR
09:54 27.4 °C 20.0 °C 1012.7 hPa ESE 5.0 km/h 5.6 km/h 64% 0.0 mm CLR
09:59 27.8 °C 20.1 °C 1012.7 hPa NE 2.9 km/h 3.7 km/h 63% 0.0 mm CLR
10:04 28.2 °C 20.2 °C 1012.8 hPa ENE 2.9 km/h 8.4 km/h 62% 0.0 mm CLR
10:09 28.1 °C 20.1 °C 1012.8 hPa East 3.9 km/h 7.4 km/h 62% 0.0 mm CLR
10:14 28.2 °C 20.2 °C 1012.8 hPa East 3.9 km/h 7.4 km/h 62% 0.0 mm CLR
10:19 28.2 °C 19.9 °C 1012.9 hPa East 3.9 km/h 9.3 km/h 61% 0.0 mm CLR
10:24 28.3 °C 20.1 °C 1012.9 hPa NW 3.9 km/h 7.4 km/h 61% 0.0 mm CLR
10:29 28.3 °C 20.1 °C 1012.9 hPa ENE 4.7 km/h 7.4 km/h 61% 0.0 mm CLR
10:34 28.3 °C 20.1 °C 1012.8 hPa NNE 4.7 km/h 9.3 km/h 61% 0.0 mm CLR
10:39 28.4 °C 20.2 °C 1012.8 hPa NE 5.0 km/h   61% 0.0 mm CLR
10:44 28.6 °C 20.1 °C 1012.8 hPa ENE 5.0 km/h 5.8 km/h 60% 0.0 mm CLR
10:49 28.8 °C 20.3 °C 1012.9 hPa NNE 3.2 km/h 7.4 km/h 60% 0.0 mm CLR
10:54 28.9 °C 20.1 °C 1012.9 hPa WNW 3.2 km/h 7.4 km/h 59% 0.0 mm CLR
10:59 28.8 °C 20.3 °C 1012.9 hPa NW 4.7 km/h 9.3 km/h 60% 0.0 mm CLR
11:04 29.0 °C 20.4 °C 1012.9 hPa ENE 4.7 km/h 3.7 km/h 60% 0.0 mm CLR
11:09 29.3 °C 20.4 °C 1012.9 hPa NW 3.2 km/h 7.4 km/h 59% 0.0 mm CLR
11:14 29.3 °C 20.4 °C 1012.9 hPa NNW 3.2 km/h 5.6 km/h 59% 0.0 mm CLR
11:19 29.4 °C 20.6 °C 1012.8 hPa NNE 5.8 km/h 11.1 km/h 59% 0.0 mm CLR
11:24 29.4 °C 20.6 °C 1012.8 hPa North 5.8 km/h 3.7 km/h 59% 0.0 mm CLR
11:29 29.6 °C 20.7 °C 1012.8 hPa NNE 3.9 km/h 3.9 km/h 59% 0.0 mm CLR
11:34 29.7 °C 20.6 °C 1012.9 hPa NNW 3.9 km/h 11.1 km/h 58% 0.0 mm CLR
11:39 29.8 °C 20.4 °C 1012.9 hPa ENE 4.7 km/h 9.3 km/h 57% 0.0 mm CLR
11:44 30.1 °C 20.7 °C 1012.9 hPa NE 4.7 km/h 9.3 km/h 57% 0.0 mm CLR
11:49 30.3 °C 20.8 °C 1012.8 hPa NNE 3.2 km/h 13.0 km/h 57% 0.0 mm CLR
11:54 30.3 °C 20.8 °C 1012.8 hPa NE 3.2 km/h 13.0 km/h 57% 0.0 mm CLR
11:59 30.1 °C 20.7 °C 1012.8 hPa NNE 9.5 km/h 11.1 km/h 57% 0.0 mm CLR
12:04 30.1 °C 20.7 °C 1012.7 hPa NNW 9.5 km/h 8.7 km/h 57% 0.0 mm CLR
12:09 30.2 °C 20.4 °C 1012.7 hPa ENE 5.8 km/h 13.0 km/h 56% 0.0 mm CLR
12:14 30.3 °C 20.6 °C 1012.7 hPa NE 5.8 km/h 20.4 km/h 56% 0.0 mm CLR
12:19 30.5 °C 20.4 °C 1012.7 hPa NNE 8.7 km/h 7.4 km/h 55% 0.0 mm CLR
12:24 30.7 °C 20.6 °C 1012.7 hPa NE 8.7 km/h 11.1 km/h 55% 0.0 mm CLR
12:29 30.9 °C 20.8 °C 1012.7 hPa NNE 6.4 km/h 16.7 km/h 55% 0.0 mm CLR
12:34 30.7 °C 20.6 °C 1012.5 hPa NW 6.4 km/h 11.1 km/h 55% 0.0 mm CLR
12:39 30.8 °C 20.7 °C 1012.5 hPa NE 9.5 km/h 13.0 km/h 55% 0.0 mm CLR
12:44 30.9 °C 20.5 °C 1012.5 hPa ENE 9.5 km/h 14.0 km/h 54% 0.0 mm CLR
12:49 31.1 °C 20.7 °C 1012.5 hPa NE 8.7 km/h 11.1 km/h 54% 0.0 mm CLR
12:54 31.2 °C 20.8 °C 1012.5 hPa ENE 8.7 km/h 16.7 km/h 54% 0.0 mm CLR
12:59 31.2 °C 20.8 °C 1012.5 hPa ENE 9.5 km/h 9.3 km/h 54% 0.0 mm CLR
13:04 31.5 °C 20.8 °C 1012.2 hPa East 9.5 km/h 7.6 km/h 53% 0.0 mm CLR
13:09 31.5 °C 20.8 °C 1012.2 hPa NE 6.4 km/h 13.0 km/h 53% 0.0 mm CLR
13:14 31.5 °C 20.8 °C 1012.2 hPa NE 6.4 km/h 16.7 km/h 53% 0.0 mm CLR
13:19 31.7 °C 20.6 °C 1011.9 hPa NNE 11.1 km/h 24.5 km/h 52% 0.0 mm CLR
13:24 31.7 °C 20.6 °C 1011.9 hPa ESE 11.1 km/h 16.7 km/h 52% 0.0 mm CLR
13:29 31.7 °C 20.6 °C 1011.9 hPa NE 10.3 km/h 16.7 km/h 52% 0.0 mm CLR
13:34 31.7 °C 20.6 °C 1011.7 hPa NNW 10.3 km/h 16.7 km/h 52% 0.0 mm CLR
13:39 31.7 °C 20.6 °C 1011.7 hPa NNW 10.0 km/h 13.0 km/h 52% 0.0 mm CLR
13:44 31.8 °C 20.7 °C 1011.7 hPa NW 10.0 km/h 9.3 km/h 52% 0.0 mm CLR
13:49 32.1 °C 21.0 °C 1011.7 hPa NE 7.6 km/h 11.1 km/h 52% 0.0 mm CLR
13:54 32.3 °C 20.9 °C 1011.7 hPa NE 7.6 km/h 21.7 km/h 51% 0.0 mm CLR
13:59 32.4 °C 20.9 °C 1011.7 hPa NNE 8.7 km/h 16.7 km/h 51% 0.0 mm CLR
14:04 32.3 °C 20.9 °C 1011.5 hPa NNE 8.7 km/h 11.1 km/h 51% 0.0 mm CLR
14:09 32.4 °C 20.9 °C 1011.5 hPa NNE 8.7 km/h 13.0 km/h 51% 0.0 mm CLR
14:14 32.5 °C 21.1 °C 1011.5 hPa North 8.7 km/h 12.2 km/h 51% 0.0 mm CLR
14:19 32.7 °C 21.2 °C 1011.3 hPa NE 7.6 km/h 13.7 km/h 51% 0.0 mm CLR
14:24 32.9 °C 21.4 °C 1011.3 hPa ENE 7.6 km/h 22.2 km/h 51% 0.0 mm CLR
14:29 32.8 °C 21.3 °C 1011.3 hPa NNE 11.1 km/h 20.4 km/h 51% 0.0 mm CLR
14:34 32.9 °C 21.1 °C 1011.1 hPa NE 11.1 km/h 18.5 km/h 50% 0.0 mm CLR
14:39 32.9 °C 21.1 °C 1011.1 hPa ENE 13.0 km/h 18.5 km/h 50% 0.0 mm CLR
14:44 33.0 °C 21.2 °C 1011.1 hPa NE 13.0 km/h 20.4 km/h 50% 0.0 mm CLR
14:49 33.0 °C 21.2 °C 1011.0 hPa NNE 9.5 km/h 16.7 km/h 50% 0.0 mm CLR
14:54 33.1 °C 21.6 °C 1011.0 hPa NNE 9.5 km/h 15.6 km/h 51% 0.0 mm CLR
14:59 33.1 °C 21.3 °C 1011.0 hPa NE 10.3 km/h 18.5 km/h 50% 0.0 mm CLR
15:04 33.3 °C 21.4 °C 1010.8 hPa NE 10.3 km/h 14.8 km/h 50% 0.0 mm CLR
15:09 33.5 °C 21.7 °C 1010.8 hPa NE 10.3 km/h 20.1 km/h 50% 0.0 mm CLR
15:14 33.3 °C 21.4 °C 1010.8 hPa North 10.3 km/h 16.7 km/h 50% 0.0 mm CLR
15:19 33.5 °C 21.7 °C 1010.7 hPa NNE 11.9 km/h 20.4 km/h 50% 0.0 mm CLR
15:24 33.4 °C 21.6 °C 1010.7 hPa NNE 11.9 km/h 22.2 km/h 50% 0.0 mm CLR
15:29 33.4 °C 21.6 °C 1010.7 hPa NE 12.2 km/h 24.1 km/h 50% 0.0 mm CLR
15:34 33.3 °C 21.8 °C 1010.6 hPa NNE 12.2 km/h 20.4 km/h 51% 0.0 mm CLR
15:39 33.4 °C 21.9 °C 1010.6 hPa NNE 13.7 km/h 24.1 km/h 51% 0.0 mm CLR
15:44 33.5 °C 22.0 °C 1010.6 hPa ESE 13.7 km/h 13.0 km/h 51% 0.0 mm CLR
15:49 33.7 °C 21.8 °C 1010.4 hPa NNE 11.9 km/h 22.2 km/h 50% 0.0 mm CLR
15:54 33.6 °C 22.1 °C 1010.4 hPa NE 11.9 km/h 29.6 km/h 51% 0.0 mm CLR
15:59 33.7 °C 21.8 °C 1010.4 hPa East 15.6 km/h 25.9 km/h 50% 0.0 mm CLR
16:04 33.7 °C 21.8 °C 1010.1 hPa NNE 15.6 km/h 27.8 km/h 50% 0.0 mm CLR
16:09 33.6 °C 21.7 °C 1010.1 hPa NNE 16.1 km/h 31.5 km/h 50% 0.0 mm CLR
16:14 33.7 °C 21.8 °C 1010.1 hPa NE 16.1 km/h 20.4 km/h 50% 0.0 mm CLR
16:19 33.9 °C 21.7 °C 1010.0 hPa NNE 17.2 km/h 16.7 km/h 49% 0.0 mm CLR
16:24 33.9 °C 21.7 °C 1010.0 hPa ENE 17.2 km/h 27.8 km/h 49% 0.0 mm CLR
16:29 34.0 °C 21.8 °C 1010.0 hPa ENE 17.2 km/h 24.1 km/h 49% 0.0 mm CLR
16:34 34.2 °C 21.6 °C 1009.8 hPa ESE 17.2 km/h 25.9 km/h 48% 0.0 mm CLR
16:39 34.4 °C 21.4 °C 1009.8 hPa SE 14.0 km/h 27.8 km/h 47% 0.0 mm CLR
16:44 34.2 °C 21.6 °C 1009.8 hPa SE 14.0 km/h 18.5 km/h 48% 0.0 mm CLR
16:49 34.2 °C 21.6 °C 1009.8 hPa SE 16.4 km/h 25.9 km/h 48% 0.0 mm CLR
16:54 34.0 °C 21.4 °C 1009.8 hPa SSE 16.4 km/h 29.6 km/h 48% 0.0 mm CLR
16:59 34.1 °C 21.6 °C 1009.8 hPa SE 16.1 km/h 22.2 km/h 48% 0.0 mm CLR
17:04 34.1 °C 21.2 °C 1009.7 hPa SE 16.1 km/h 22.2 km/h 47% 0.0 mm CLR
17:09 33.9 °C 21.0 °C 1009.7 hPa SE 14.8 km/h 25.9 km/h 47% 0.0 mm CLR
17:14 33.9 °C 21.0 °C 1009.7 hPa SSE 14.8 km/h 20.4 km/h 47% 0.0 mm CLR
17:19 33.9 °C 20.7 °C 1009.6 hPa SE 14.8 km/h 18.5 km/h 46% 0.0 mm CLR
17:24 33.9 °C 20.7 °C 1009.6 hPa ESE 14.8 km/h 25.9 km/h 46% 0.0 mm CLR
17:29 33.9 °C 20.3 °C 1009.6 hPa SSE 15.6 km/h 16.7 km/h 45% 0.0 mm CLR
17:34 34.2 °C 20.2 °C 1009.5 hPa East 15.6 km/h 20.4 km/h 44% 0.0 mm CLR
17:39 34.1 °C 20.1 °C 1009.5 hPa SSE 13.0 km/h 18.5 km/h 44% 0.0 mm CLR
17:44 34.2 °C 19.8 °C 1009.5 hPa ENE 13.0 km/h 20.4 km/h 43% 0.0 mm CLR
17:49 34.1 °C 19.4 °C 1009.5 hPa ESE 13.0 km/h 20.4 km/h 42% 0.0 mm CLR
17:54 33.8 °C 19.5 °C 1009.5 hPa SE 13.0 km/h 22.2 km/h 43% 0.0 mm CLR
17:59 33.9 °C 19.6 °C 1009.5 hPa SE 14.0 km/h 24.5 km/h 43% 0.0 mm CLR
18:04 33.8 °C 19.8 °C 1009.5 hPa SE 14.0 km/h 24.1 km/h 44% 0.0 mm CLR
18:09 33.9 °C 19.9 °C 1009.5 hPa SE 14.8 km/h 25.1 km/h 44% 0.0 mm CLR
18:14 33.8 °C 19.8 °C 1009.5 hPa SE 14.8 km/h 18.5 km/h 44% 0.0 mm CLR
18:19 33.8 °C 19.8 °C 1009.5 hPa ESE 13.7 km/h 18.5 km/h 44% 0.0 mm CLR
18:24 33.6 °C 20.0 °C 1009.5 hPa SE 13.7 km/h 25.6 km/h 45% 0.0 mm CLR
18:29 33.4 °C 20.2 °C 1009.5 hPa ESE 14.8 km/h 16.7 km/h 46% 0.0 mm CLR
18:34 33.3 °C 20.1 °C 1009.4 hPa SE 14.8 km/h 20.4 km/h 46% 0.0 mm CLR
18:39 33.3 °C 20.4 °C 1009.4 hPa SE 13.7 km/h 20.4 km/h 47% 0.0 mm CLR
18:44 33.3 °C 20.4 °C 1009.4 hPa SE 13.7 km/h 22.2 km/h 47% 0.0 mm CLR
18:49 33.3 °C 20.4 °C 1009.3 hPa SSE 14.0 km/h 18.3 km/h 47% 0.0 mm CLR
18:54 33.3 °C 20.8 °C 1009.3 hPa SE 14.0 km/h 20.4 km/h 48% 0.0 mm CLR
18:59 33.3 °C 21.1 °C 1009.3 hPa SE 13.0 km/h 20.4 km/h 49% 0.0 mm CLR
19:04 33.3 °C 20.8 °C 1009.4 hPa SE 13.0 km/h 16.7 km/h 48% 0.0 mm CLR
19:09 33.2 °C 21.1 °C 1009.4 hPa SE 13.0 km/h 18.5 km/h 49% 0.0 mm CLR
19:14 33.2 °C 20.7 °C 1009.4 hPa SE 13.0 km/h 20.9 km/h 48% 0.0 mm CLR
19:19 33.1 °C 20.9 °C 1009.4 hPa East 11.9 km/h 18.5 km/h 49% 0.0 mm CLR
19:24 33.1 °C 20.9 °C 1009.4 hPa ESE 11.9 km/h 13.0 km/h 49% 0.0 mm CLR
19:29 32.9 °C 20.8 °C 1009.4 hPa SE 11.9 km/h 14.8 km/h 49% 0.0 mm CLR
19:34 32.9 °C 21.1 °C 1009.5 hPa East 11.9 km/h 20.4 km/h 50% 0.0 mm CLR
19:39 32.7 °C 20.9 °C 1009.5 hPa ESE 12.2 km/h 16.7 km/h 50% 0.0 mm CLR
19:44 32.6 °C 21.2 °C 1009.5 hPa East 12.2 km/h 18.5 km/h 51% 0.0 mm CLR
19:49 32.5 °C 21.4 °C 1009.7 hPa ESE 13.0 km/h 16.7 km/h 52% 0.0 mm CLR
19:54 32.3 °C 21.2 °C 1009.7 hPa ESE 13.0 km/h 21.7 km/h 52% 0.0 mm CLR
19:59 32.2 °C 21.4 °C 1009.7 hPa ESE 14.0 km/h 18.5 km/h 53% 0.0 mm CLR
20:04 32.1 °C 21.6 °C 1009.7 hPa SE 14.0 km/h 18.5 km/h 54% 0.0 mm CLR
20:09 31.9 °C 21.4 °C 1009.7 hPa SE 14.0 km/h 22.2 km/h 54% 0.0 mm CLR
20:14 31.7 °C 21.6 °C 1009.7 hPa ESE 14.0 km/h 14.8 km/h 55% 0.0 mm CLR
20:19 31.7 °C 21.6 °C 1009.8 hPa ESE 14.0 km/h 22.2 km/h 55% 0.0 mm CLR
20:24 31.4 °C 21.6 °C 1009.8 hPa ESE 14.0 km/h 20.4 km/h 56% 0.0 mm CLR
20:29 31.3 °C 21.8 °C 1009.8 hPa SE 14.8 km/h 16.7 km/h 57% 0.0 mm CLR
20:34 31.2 °C 21.7 °C 1010.0 hPa East 14.8 km/h 20.4 km/h 57% 0.0 mm CLR
20:39 31.1 °C 21.6 °C 1010.0 hPa ESE 13.7 km/h 16.7 km/h 57% 0.0 mm CLR
20:44 31.1 °C 21.8 °C 1010.0 hPa East 13.7 km/h 18.5 km/h 58% 0.0 mm CLR
20:49 30.9 °C 21.7 °C 1010.1 hPa ESE 11.9 km/h 16.7 km/h 58% 0.0 mm CLR
20:54 30.8 °C 21.8 °C 1010.1 hPa ESE 11.9 km/h 16.7 km/h 59% 0.0 mm CLR
20:59 30.6 °C 21.7 °C 1010.1 hPa ESE 11.9 km/h 22.2 km/h 59% 0.0 mm CLR
21:04 30.4 °C 21.8 °C 1010.3 hPa East 11.9 km/h 13.0 km/h 60% 0.0 mm CLR
21:09 30.3 °C 21.7 °C 1010.3 hPa SE 10.3 km/h 16.7 km/h 60% 0.0 mm CLR
21:14 30.3 °C 21.9 °C 1010.3 hPa NNE 10.3 km/h 9.3 km/h 61% 0.0 mm CLR
21:19 30.2 °C 21.8 °C 1010.6 hPa NNE 5.8 km/h 11.1 km/h 61% 0.0 mm CLR
21:24 29.8 °C 21.7 °C 1010.6 hPa NNE 5.8 km/h 16.7 km/h 62% 0.0 mm CLR
21:29 29.4 °C 21.3 °C 1010.6 hPa NNW 11.1 km/h 18.5 km/h 62% 0.0 mm CLR
21:34 29.0 °C 21.2 °C 1010.8 hPa NE 11.1 km/h 20.9 km/h 63% 0.0 mm CLR
21:39 28.7 °C 21.4 °C 1010.8 hPa NE 13.7 km/h 16.7 km/h 65% 0.0 mm CLR
21:44 28.6 °C 21.4 °C 1010.8 hPa East 13.7 km/h 22.2 km/h 65% 0.0 mm CLR
21:49 28.3 °C 21.3 °C 1011.0 hPa NNE 12.2 km/h 22.2 km/h 66% 0.0 mm CLR
21:54 28.2 °C 21.5 °C 1011.0 hPa NNE 12.2 km/h 23.7 km/h 67% 0.0 mm CLR
21:59 27.9 °C 21.4 °C 1011.0 hPa NE 14.8 km/h 20.4 km/h 68% 0.0 mm CLR
22:04 27.8 °C 21.3 °C 1011.3 hPa NE 14.8 km/h 19.8 km/h 68% 0.0 mm CLR
22:09 27.8 °C 21.3 °C 1011.3 hPa NE 13.0 km/h 16.7 km/h 68% 0.0 mm CLR
22:14 27.7 °C 21.3 °C 1011.3 hPa NE 13.0 km/h 33.3 km/h 68% 0.0 mm CLR
22:19 27.6 °C 21.2 °C 1011.6 hPa NNE 14.0 km/h 24.1 km/h 68% 0.0 mm CLR
22:24 27.5 °C 21.1 °C 1011.6 hPa NE 14.0 km/h 24.1 km/h 68% 0.0 mm CLR
22:29 27.4 °C 20.7 °C 1011.6 hPa NE 14.0 km/h 18.5 km/h 67% 0.0 mm CLR
22:34 27.4 °C 20.2 °C 1011.9 hPa NE 14.0 km/h 24.1 km/h 65% 0.0 mm CLR
22:39 27.4 °C 20.5 °C 1011.9 hPa NE 16.1 km/h 18.5 km/h 66% 0.0 mm CLR
22:44 27.4 °C 20.5 °C 1011.9 hPa ENE 16.1 km/h 20.4 km/h 66% 0.0 mm CLR
22:49 27.3 °C 20.4 °C 1012.0 hPa East 13.0 km/h 18.5 km/h 66% 0.0 mm CLR
22:54 27.3 °C 20.6 °C 1012.0 hPa NE 13.0 km/h 20.4 km/h 67% 0.0 mm CLR
22:59 27.2 °C 20.6 °C 1012.0 hPa NE 12.2 km/h 14.8 km/h 67% 0.0 mm CLR
23:04 27.1 °C 20.4 °C 1012.3 hPa NNE 12.2 km/h 16.7 km/h 67% 0.0 mm CLR
23:09 27.1 °C 20.7 °C 1012.3 hPa NE 11.1 km/h 14.8 km/h 68% 0.0 mm CLR
23:14 27.1 °C 20.7 °C 1012.3 hPa NE 11.1 km/h 16.7 km/h 68% 0.0 mm CLR
23:19 26.9 °C 20.5 °C 1012.6 hPa NNE 12.2 km/h 14.8 km/h 68% 0.0 mm CLR
23:24 26.9 °C 20.7 °C 1012.6 hPa NE 12.2 km/h 16.7 km/h 69% 0.0 mm CLR
23:29 26.9 °C 20.7 °C 1012.6 hPa NE 11.1 km/h 13.0 km/h 69% 0.0 mm CLR
23:34 26.9 °C 20.9 °C 1012.6 hPa ENE 11.1 km/h 11.1 km/h 70% 0.0 mm CLR
23:39 26.8 °C 20.9 °C 1012.6 hPa NE 9.5 km/h 11.1 km/h 70% 0.0 mm CLR
23:44 26.7 °C 21.0 °C 1012.6 hPa NNE 9.5 km/h 11.1 km/h 71% 0.0 mm CLR
23:49 26.6 °C 21.1 °C 1012.7 hPa NNE 8.7 km/h 14.8 km/h 72% 0.0 mm CLR
23:54 26.6 °C 21.3 °C 1012.7 hPa North 8.7 km/h 11.1 km/h 73% 0.0 mm CLR
23:59 26.4 °C 21.4 °C 1012.7 hPa North 9.5 km/h 14.8 km/h 74% 0.0 mm CLR
Murcia-Puente Tocinos, España
Compliments of Weather Underground - 2.75 mb

La estación de MeteoMurcia.com, publica sus datos en los siguientes proyectos:

Weather Underground PWS IMURCIAP2 Meteoclimatic www.awekas.at

W3Counter
Web Analytics